Dewpoint
76 75 74 72 76 75 72 71 59 63 61 55 55 57 49 55 54 58 54 59 54 57 56 58 60 60 60 59 61 63 63 62 63 55 55 66 70 71 72 72 73 73 73 73 74 74 74 75 74 76 76 76 76 76 76 76 76 76 76 76 76 76 76 76 76 77 77 76 76 76 76 75 76 76 76 76 75 75 75 75 75 75 75 75 75 75 75 75 75 75 74 74 74 74 75 75 75
74 72 70 73 73 74 66 69 61 58 58 55 52 51 52 53 59 58 54 53 52 54 57 59 60 60 61 61 62 62 63 64 64 65 68 70 71 71 71 72 72 72 72 73 74 74 74 74 75 76 76 76 76 76 77 76 76 76 76 76 76 76 76 76 76 76 76 76 76 76 76 76 76 76 75 75 75 75 75 75 75 75 75 75 74 75 75 75 75 75 74 74 74 74 74 74 75
69 69 68 72 72 70 69 68 57 55 55 50 51 53 54 54 55 56 51 52 53 56 58 60 59 59 60 61 60 60 61 65 65 67 68 70 69 70 72 72 72 72 72 73 73 73 74 75 75 76 76 76 76 76 76 77 76 76 76 76 76 76 76 76 76 76 76 76 76 76 76 76 75 75 76 75 75 75 75 75 75 75 75 75 75 75 75 75 75 75 75 75 75 75 75 74 74
67 68 67 70 67 68 63 62 59 55 53 51 52 50 52 54 53 52 53 53 54 55 57 58 57 60 60 60 62 64 64 64 66 66 67 68 69 71 71 71 72 72 72 73 73 73 74 75 76 76 76 76 77 76 77 77 76 76 76 76 76 76 76 76 76 76 76 76 76 76 76 76 75 76 76 75 75 75 75 75 75 75 75 75 75 75 75 75 75 75 75 75 75 75 75 75 75
66 69 68 68 66 63 63 61 59 57 51 54 54 50 49 49 50 52 52 54 55 56 56 57 57 58 60 60 60 61 63 66 66 67 67 69 71 71 71 71 71 71 71 72 73 73 74 75 76 76 76 76 76 76 76 76 76 76 76 76 75 75 76 76 76 76 76 76 75 75 75 75 75 75 75 75 75 75 75 75 75 75 75 75 75 75 75 75 75 75 75 75 75 75 75 75 75
67 67 69 67 63 68 63 59 56 53 52 52 52 51 49 47 49 50 51 53 55 56 56 57 57 59 59 60 61 62 65 63 66 67 68 69 70 70 71 71 70 70 71 72 73 74 74 75 76 76 76 76 76 76 76 76 76 76 76 75 75 75 75 75 75 76 76 75 75 75 75 75 75 75 75 75 75 75 75 75 75 75 75 75 75 75 75 75 75 75 75 75 75 75 75 75 75
65 64 64 67 67 64 58 57 58 54 52 53 50 48 46 48 50 50 51 52 56 57 59 59 60 60 59 61 62 64 66 67 66 67 69 70 69 70 70 69 69 69 70 72 73 74 74 75 76 76 76 76 76 76 76 76 76 76 76 76 75 75 75 75 75 75 75 75 75 75 76 76 76 75 75 75 75 75 75 75 75 75 75 75 75 76 76 76 75 75 75 75 75 75 75 74 74
67 63 65 62 60 60 58 57 55 53 47 51 50 45 46 46 47 50 51 50 54 55 57 58 58 58 59 61 60 65 66 67 67 68 69 69 69 69 69 68 68 68 70 72 73 74 77 76 76 76 76 76 76 76 76 76 76 76 76 75 75 75 75 75 76 75 75 75 75 75 75 76 76 76 75 75 75 75 74 75 75 75 75 75 76 76 76 76 75 75 75 75 75 75 74 74 74
63 63 67 61 58 56 54 53 53 55 45 50 50 48 51 46 47 46 49 51 54 56 58 59 61 60 60 61 62 64 67 68 68 70 68 69 69 69 68 68 68 69 71 72 74 75 75 77 77 76 76 77 76 76 76 76 76 76 76 75 75 75 75 75 76 75 75 75 75 75 75 76 76 76 76 75 75 75 75 75 75 75 75 76 76 76 76 76 75 75 75 75 75 74 74 74 74
63 64 60 59 56 52 51 50 50 49 46 40 43 44 45 45 45 45 48 52 54 56 57 60 61 60 62 61 63 64 66 68 68 68 68 69 69 68 68 68 69 70 72 73 74 75 75 77 76 76 77 77 76 76 76 76 76 76 76 76 76 75 75 75 75 75 75 75 75 75 75 75 76 76 75 75 76 76 75 75 74 75 76 76 76 76 76 75 75 75 74 74 74 74 74 74 74
62 64 64 59 55 52 51 50 41 38 38 40 42 43 44 47 45 45 51 52 57 57 58 61 61 61 61 62 63 66 67 68 67 67 68 68 68 68 68 69 69 71 73 74 74 75 75 75 77 77 77 77 76 76 76 76 76 76 75 76 76 76 75 75 75 75 76 75 75 76 76 76 76 75 75 75 76 76 75 75 75 75 75 76 76 76 76 76 75 74 74 74 74 74 74 74 74
61 61 61 55 52 51 49 48 34 35 39 40 41 43 45 46 45 49 51 53 56 56 57 59 59 62 61 61 63 65 66 66 67 67 67 67 67 68 69 69 69 71 73 73 74 75 75 76 76 77 77 77 77 76 76 76 76 76 76 76 76 76 76 76 75 75 75 75 75 75 76 76 76 76 75 75 76 76 75 75 75 75 75 76 76 76 76 76 75 75 75 75 74 75 74 74 75
61 58 55 52 50 48 47 46 34 38 36 39 40 42 44 45 45 46 49 54 55 55 57 59 60 60 59 60 63 64 64 65 66 67 67 68 68 69 69 69 71 72 72 74 74 74 75 75 75 76 76 77 77 76 76 76 76 76 76 76 76 76 76 76 76 75 75 75 76 76 76 76 76 76 75 75 75 76 75 75 75 75 75 76 76 76 76 75 75 74 75 75 75 75 74 74 74
60 57 57 52 50 49 47 45 32 29 28 31 35 40 44 45 45 45 47 51 52 55 59 60 59 60 59 61 62 63 64 65 65 66 67 68 68 68 69 70 71 71 72 73 74 74 74 75 75 75 76 76 76 76 76 76 77 76 76 76 76 76 76 76 76 76 76 76 76 76 76 76 76 76 76 76 75 75 76 75 75 75 75 76 76 76 76 75 75 75 74 75 75 74 74 74 74
56 57 54 54 49 46 42 39 31 30 30 33 36 39 45 47 45 44 49 52 53 58 59 59 60 60 58 60 61 63 64 65 66 66 66 67 68 68 69 69 70 71 72 72 73 74 74 74 74 75 76 76 76 76 76 76 77 76 76 76 76 76 76 76 76 76 76 76 76 76 76 76 76 76 76 76 75 75 76 76 75 75 75 76 76 75 76 75 75 75 74 75 75 75 74 74 75
52 54 55 52 48 43 42 42 30 29 30 33 38 41 44 44 45 46 50 53 53 55 58 58 59 58 60 61 62 63 64 65 66 66 67 67 68 68 67 68 70 71 71 72 73 73 73 73 74 75 75 75 76 76 76 76 76 77 77 76 77 77 77 76 76 76 76 76 76 76 76 76 76 76 76 75 75 76 76 76 76 75 75 76 75 76 76 76 75 74 75 74 75 74 75 74 75
54 52 50 51 46 43 42 40 33 30 31 32 35 36 39 42 44 49 51 52 53 56 57 58 56 60 61 61 62 63 63 65 66 65 66 67 68 67 67 68 69 69 71 72 72 72 72 73 74 75 75 75 75 75 76 76 76 77 77 77 77 77 77 77 77 76 76 76 76 76 76 76 76 77 75 76 76 76 77 76 75 75 75 75 76 76 76 76 76 75 74 74 74 74 74 75 75
52 51 52 49 44 44 42 41 37 32 29 30 33 37 42 43 46 47 49 49 53 54 53 56 58 59 61 62 63 63 64 64 65 66 66 67 67 67 67 68 68 69 70 70 71 71 72 74 74 75 75 75 75 75 76 76 77 76 76 76 76 76 76 76 76 76 77 76 76 76 76 77 76 76 76 77 76 76 76 76 75 74 74 75 76 76 76 76 76 76 74 74 74 74 75 75 76
49 50 49 46 44 46 45 41 37 33 31 31 35 38 41 43 44 45 44 45 49 48 52 55 58 60 61 62 62 63 63 64 65 66 66 66 67 67 68 69 69 69 69 70 70 71 73 74 74 74 74 74 74 75 76 76 76 76 76 76 76 76 77 77 76 77 76 76 76 76 77 76 76 76 76 77 76 77 76 76 75 74 75 76 76 76 76 76 76 76 75 74 73 75 75 75 77
48 47 47 45 43 43 45 42 41 38 37 33 34 34 37 38 37 40 42 43 46 46 53 57 58 59 60 61 62 63 63 63 64 65 65 66 67 67 68 68 69 69 69 70 70 72 73 73 74 74 74 74 74 74 75 76 76 76 76 76 75 76 76 77 76 76 76 76 76 76 75 76 76 76 78 75 75 77 76 77 76 75 75 76 77 77 77 77 77 76 77 75 76 77 75 75 75
47 45 45 44 43 42 42 39 39 39 38 35 35 34 32 32 36 38 40 41 44 47 56 57 58 59 60 61 62 62 63 63 64 64 65 66 67 67 68 69 68 69 70 70 71 72 73 73 73 74 74 74 74 74 74 75 75 75 75 75 75 76 76 76 76 76 75 76 75 76 75 75 76 76 76 75 74 76 76 76 76 75 76 75 77 76 76 77 78 76 77 77 75 76 75 74 75
42 44 43 42 42 40 41 39 40 40 39 38 38 34 31 33 35 37 39 39 42 48 56 57 58 59 60 61 61 62 63 64 64 65 65 65 66 67 68 69 69 70 70 70 71 72 72 73 73 74 74 74 74 74 74 75 75 74 75 75 75 75 75 75 75 75 75 75 75 75 75 74 74 75 75 75 72 73 76 75 76 75 75 76 78 76 76 76 76 76 74 75 75 75 72 73 73
36 43 43 42 39 38 40 39 40 39 39 40 37 39 34 31 25 35 38 38 43 51 57 58 58 58 60 61 61 62 63 64 64 64 65 65 66 66 68 68 69 69 70 70 71 72 72 73 74 74 74 74 74 74 74 75 74 74 74 74 74 74 75 74 74 75 74 75 75 75 74 73 74 73 74 74 73 74 75 74 74 76 75 74 76 74 75 76 75 75 74 74 73 72 72 73 74
36 33 40 41 39 38 39 39 38 36 38 41 41 41 35 35 30 35 33 36 46 56 57 58 59 59 60 60 61 61 63 64 64 64 65 65 65 66 67 68 69 69 70 70 71 71 72 73 74 74 74 74 74 74 74 74 73 74 74 75 74 74 74 74 73 74 75 75 75 75 76 73 73 74 72 74 74 73 72 72 73 75 76 74 76 74 73 73 74 74 74 75 74 73 72 72 71
35 35 35 37 39 40 39 38 38 35 38 40 41 40 39 36 32 39 39 45 55 57 57 57 58 59 59 60 61 61 62 63 63 64 64 65 65 66 66 67 68 69 69 70 70 71 71 73 74 74 74 74 74 74 73 73 73 73 74 74 73 75 73 73 73 74 74 75 75 75 76 72 72 71 73 72 75 74 74 73 73 73 75 75 76 74 75 75 73 74 75 74 74 73 72 71 70
30 32 33 35 37 40 38 39 39 35 35 39 41 40 39 39 35 36 42 47 54 56 57 57 57 58 59 59 60 62 63 63 62 62 62 63 64 65 65 66 67 67 69 70 70 70 70 72 73 73 74 74 74 73 72 72 72 72 73 73 73 76 73 73 73 73 73 74 74 74 75 73 71 70 72 73 72 73 74 73 74 75 76 74 74 75 77 76 74 74 74 75 74 73 71 71 72
28 26 32 31 33 34 38 39 36 35 34 39 38 37 35 38 36 34 41 50 53 56 57 58 58 57 58 59 60 61 62 61 61 61 61 62 64 64 64 65 66 66 68 69 69 69 70 71 72 73 73 74 73 71 71 71 72 71 72 72 73 73 73 73 73 72 72 74 74 74 75 76 75 74 73 73 73 74 73 74 75 73 73 73 76 75 75 75 75 74 74 74 73 73 73 72 72
29 29 25 25 28 32 35 36 35 34 33 39 38 37 37 40 38 36 44 49 53 55 57 58 58 58 59 58 60 61 61 61 60 60 60 61 63 63 64 64 65 65 67 68 68 69 69 70 70 72 72 73 72 70 72 71 71 72 71 72 72 72 73 73 72 72 74 73 74 75 74 75 77 76 73 75 74 74 74 73 74 73 74 75 76 74 75 76 75 75 75 74 74 74 73 73 72
29 27 23 22 22 22 32 33 34 33 33 38 38 36 37 38 36 36 42 50 51 53 54 54 56 57 57 59 59 61 60 60 59 59 61 61 63 62 63 64 65 65 67 67 68 69 68 69 70 71 72 72 72 71 70 72 70 72 71 71 72 73 73 72 71 72 72 73 75 75 76 76 76 77 76 74 78 75 74 73 73 74 75 74 74 75 75 76 76 74 74 75 74 73 72 72 72
29 27 22 21 20 19 30 31 31 31 32 37 36 34 36 38 38 34 35 45 50 51 52 53 54 55 55 57 58 59 59 59 58 59 60 61 62 62 63 64 65 64 66 67 68 68 68 69 70 70 72 72 72 71 70 72 71 71 72 72 74 72 72 72 72 71 73 74 76 76 76 76 76 76 76 75 75 74 74 74 73 75 75 75 75 75 74 76 74 73 72 73 74 73 72 70 70
22 23 19 19 20 22 22 29 29 30 31 34 34 34 36 39 39 35 35 36 48 50 50 51 52 55 54 55 58 58 58 59 58 60 59 60 61 61 62 63 65 65 67 67 67 67 69 68 70 69 72 72 72 71 70 72 71 72 71 71 73 73 73 71 71 73 74 74 76 76 76 77 76 77 77 76 74 74 74 74 75 75 75 76 75 75 75 74 75 73 75 72 72 71 70 70 69
18 18 19 20 20 20 21 25 25 26 31 34 33 37 37 37 37 36 37 37 47 48 48 50 51 53 53 54 57 57 57 58 58 58 58 60 60 61 62 62 64 65 67 67 67 67 68 68 69 69 72 72 71 72 70 72 71 72 72 74 73 73 73 72 71 71 72 74 75 75 76 77 76 76 77 77 75 75 74 74 75 75 76 75 75 75 75 74 73 73 74 72 71 71 70 68 68
17 16 20 19 19 19 19 21 23 24 28 33 32 32 37 39 44 38 38 36 44 45 46 48 50 52 52 53 56 56 56 57 56 57 58 60 60 61 61 62 64 66 67 66 67 67 67 68 70 69 71 71 71 72 72 72 71 72 72 72 72 72 72 71 72 71 71 72 73 74 75 76 76 76 77 77 76 75 75 74 75 76 76 74 74 74 73 74 73 73 72 73 71 71 69 68 68
18 17 18 18 18 19 19 22 25 25 28 31 32 32 39 43 39 41 38 37 37 43 45 46 48 51 52 52 55 55 55 55 56 57 57 59 60 61 61 65 64 65 66 66 67 67 67 67 68 69 71 71 71 71 73 72 72 73 72 72 73 72 71 71 72 71 71 71 72 74 75 76 76 77 76 76 76 76 75 75 74 76 75 75 74 73 73 73 73 72 71 72 72 69 68 68 67
18 19 18 16 18 18 19 20 25 26 29 30 32 32 40 40 39 41 40 39 37 39 42 44 46 49 50 50 53 55 55 55 55 57 56 59 59 60 61 62 64 64 65 65 68 67 68 68 69 70 71 71 71 71 73 73 73 73 73 72 72 72 71 71 71 70 71 72 71 74 75 76 77 77 76 77 76 76 76 75 75 75 75 75 73 73 73 73 72 72 71 72 72 69 68 67 65
17 17 17 17 16 18 19 20 27 26 28 29 31 31 33 37 38 38 42 41 39 39 41 43 45 47 49 49 53 54 55 55 55 57 56 59 60 60 61 62 63 64 66 66 68 67 67 69 68 70 71 71 71 71 73 72 73 72 71 72 71 72 72 72 72 71 70 70 74 75 76 76 77 77 77 77 76 75 75 75 75 75 75 74 74 73 73 72 72 71 70 64 62 67 69 68 66
19 18 18 16 17 18 19 20 26 27 26 28 31 31 30 36 38 38 42 42 42 41 41 40 43 47 48 48 51 54 55 55 56 58 57 59 60 60 61 62 64 64 66 66 68 67 67 69 67 70 69 71 71 71 72 71 71 72 71 71 71 71 71 72 72 72 72 71 76 77 77 77 77 77 77 76 76 76 76 75 75 74 74 74 74 73 72 71 71 71 70 70 63 65 64 71 66
18 18 18 17 17 17 19 20 27 27 27 28 32 32 32 38 37 37 41 41 41 42 42 41 42 46 48 48 51 54 55 55 57 57 58 58 60 60 61 61 64 63 65 66 67 67 67 70 67 70 69 72 72 71 71 72 72 71 71 70 70 71 71 71 71 72 71 76 77 77 77 77 76 76 77 76 77 75 73 74 74 74 74 74 73 74 71 74 67 67 70 66 69 64 66 66 65
15 16 18 18 19 18 19 21 28 28 27 30 31 33 34 37 37 38 39 40 41 43 44 43 43 45 47 48 49 53 55 55 56 57 58 58 58 60 61 62 62 63 65 66 67 68 67 69 69 69 71 71 72 72 71 71 72 72 71 71 70 70 72 72 71 72 72 75 77 77 77 77 76 76 77 77 76 75 73 73 74 74 73 73 73 68 69 66 66 68 67 65 63 67 66 70 67
15 16 18 18 18 17 17 20 24 28 28 29 33 31 35 36 39 40 39 39 40 41 44 45 44 44 46 47 48 51 54 55 56 57 57 58 58 60 61 62 62 63 65 67 68 68 68 69 70 69 70 72 72 72 72 72 72 72 71 71 71 70 71 72 72 73 72 74 75 76 77 77 76 77 77 77 76 74 72 73 74 74 73 72 69 69 68 67 69 67 68 69 66 62 64 65 69
16 17 18 17 16 17 18 20 21 26 28 28 32 34 36 36 38 39 41 41 39 40 42 44 46 45 46 47 48 49 53 54 56 57 57 58 58 59 60 62 62 63 65 67 68 68 68 68 70 70 69 72 72 73 72 72 73 72 71 72 71 71 73 71 71 71 71 72 75 76 76 77 76 76 75 75 75 74 73 74 73 72 72 70 70 70 69 69 66 67 67 68 65 65 63 65 68
14 17 18 17 16 17 18 19 18 30 32 28 30 33 35 36 37 38 39 40 41 43 40 41 46 46 47 47 48 49 51 54 56 57 57 57 58 59 61 62 62 63 64 66 68 69 69 69 70 71 70 71 72 72 72 72 72 71 71 70 69 68 70 70 70 69 70 71 75 75 76 76 76 75 75 75 74 74 73 73 72 71 69 69 69 68 66 67 66 66 66 66 65 68 66 65 66
9 13 18 18 17 17 17 17 17 30 30 30 29 30 34 38 35 37 40 40 40 44 45 42 45 47 47 47 48 49 49 52 55 57 57 56 57 58 61 62 62 62 64 66 68 69 70 70 70 72 71 70 72 72 72 73 72 71 70 70 70 68 69 70 70 70 70 71 74 75 75 75 75 74 75 75 74 73 72 72 71 70 69 70 71 69 68 69 67 66 67 69 67 70 66 65 64
6 10 14 16 17 17 17 16 16 31 31 29 29 29 35 35 36 37 40 40 41 42 43 44 46 46 46 47 48 49 49 51 53 54 56 56 56 57 60 62 62 62 63 65 67 69 70 71 71 72 72 71 71 73 72 72 72 71 71 70 71 70 69 70 71 71 72 72 72 74 75 74 74 74 74 74 72 72 72 72 71 70 69 68 70 64 65 65 68 69 69 68 68 69 68 65 64
6 8 10 15 17 17 16 16 16 18 25 29 29 29 32 35 39 38 39 40 42 42 43 44 46 46 45 46 48 50 50 51 52 52 54 56 56 57 60 62 62 62 64 65 66 68 70 71 71 72 72 72 71 72 72 72 72 72 71 70 70 72 71 72 73 73 73 72 70 72 73 74 74 73 72 73 71 71 73 71 71 70 68 68 71 67 66 68 68 66 67 66 66 68 69 68 67
3 5 9 10 14 16 16 16 16 18 19 26 31 29 30 33 39 38 38 38 40 42 43 44 46 48 45 45 45 49 49 51 52 52 53 55 56 56 59 62 62 62 64 66 66 68 70 71 72 72 72 73 72 72 72 73 73 73 72 71 71 72 72 73 73 73 72 72 70 72 72 73 72 72 71 72 71 71 72 71 70 70 68 69 70 66 65 67 67 67 67 67 68 67 70 67 67
3 3 4 5 8 12 19 19 21 26 22 24 30 29 29 30 37 37 38 36 38 41 44 44 45 47 47 45 45 46 50 51 52 53 53 54 56 57 59 62 62 62 63 65 66 67 70 71 71 71 71 72 73 72 72 72 73 73 72 72 71 72 72 73 72 72 72 71 71 72 71 72 71 72 71 72 72 71 72 72 69 70 68 71 69 66 64 67 66 66 66 68 68 66 66 68 67
-0 -1 3 5 9 13 16 31 23 18 17 30 27 27 28 27 36 37 38 40 38 40 42 44 44 45 47 48 45 45 48 51 52 53 53 54 56 57 58 62 62 62 64 64 65 67 69 71 72 71 71 72 73 73 72 72 72 73 73 72 72 72 72 72 72 72 71 71 71 71 71 71 71 72 71 71 71 70 72 71 70 70 70 70 65 68 66 65 66 66 66 67 67 66 65 67 66
-1 -2 6 6 11 15 14 18 21 18 16 23 19 19 19 30 36 36 37 39 38 39 40 43 45 46 47 48 47 46 48 49 51 52 54 55 57 57 57 61 63 63 64 64 65 66 69 71 71 71 71 72 73 73 73 72 72 73 73 73 73 73 72 72 72 72 71 70 72 71 71 71 71 71 71 70 70 70 71 70 69 69 69 67 65 65 67 65 66 66 66 67 66 66 66 67 66
0 -1 5 11 10 14 16 20 20 23 25 19 18 20 18 25 34 36 36 37 38 39 39 41 43 44 46 47 48 47 48 49 49 51 53 55 56 58 58 60 63 64 64 65 65 66 68 70 72 71 71 72 73 73 73 73 72 73 74 73 73 74 73 72 72 72 71 70 72 71 71 71 71 69 71 70 70 70 71 71 70 70 70 67 65 64 67 68 67 66 66 65 65 66 67 64 65
3 -0 -2 8 14 14 15 16 17 15 23 23 18 17 23 18 23 36 36 38 38 39 39 40 42 44 45 46 48 47 46 47 50 50 52 56 56 58 59 60 62 64 64 65 65 67 68 70 72 72 72 72 73 73 74 74 73 73 74 74 74 74 73 72 72 72 71 70 72 71 71 71 71 70 72 70 70 71 70 70 70 70 69 67 66 64 65 68 68 68 67 65 66 65 66 65 64
-1 -1 2 2 5 17 13 23 17 21 23 17 20 22 27 21 39 36 36 36 38 39 40 41 40 41 45 46 46 46 46 46 48 52 53 57 57 58 59 60 62 64 65 65 66 67 68 70 71 72 72 72 73 73 73 74 74 74 74 74 74 74 74 73 73 73 72 71 72 72 71 71 71 71 71 70 70 71 70 69 70 69 67 67 66 65 66 66 66 67 67 65 66 67 65 66 64
3 1 -1 -2 2 6 20 25 24 26 19 17 31 30 26 28 30 30 34 35 36 38 39 39 40 40 44 46 46 45 46 48 49 53 55 58 59 59 60 61 61 63 65 65 67 67 68 70 71 72 72 73 73 73 73 74 74 74 74 74 74 74 73 73 73 72 72 72 72 72 72 72 71 72 71 71 70 71 70 70 69 68 67 66 67 66 67 66 66 66 66 65 65 65 65 65 65
6 -0 1 11 12 14 18 17 21 16 18 21 17 19 25 20 26 29 32 32 33 34 36 37 38 40 44 45 46 46 47 50 51 52 55 56 59 60 59 61 62 63 65 65 67 67 69 70 71 72 72 73 73 73 73 73 74 74 74 74 74 73 73 73 73 72 72 72 72 72 72 72 71 72 71 71 71 70 69 71 68 68 67 66 66 67 67 67 66 65 66 66 65 65 65 65 65
4 4 7 2 13 5 19 24 16 16 13 14 22 18 19 29 33 26 30 31 32 33 35 34 37 41 45 46 46 46 48 50 51 51 53 55 56 60 60 60 62 63 65 66 67 68 69 70 71 71 72 73 73 73 73 74 74 74 75 74 73 73 73 73 74 72 72 72 72 71 72 72 72 71 72 70 70 70 69 69 67 68 68 66 66 67 67 67 66 65 66 66 66 66 66 65 64
6 6 5 5 6 12 9 15 18 23 20 18 14 17 23 27 26 30 31 31 33 33 34 34 36 40 43 45 46 47 48 49 50 50 51 54 55 57 59 59 61 63 65 65 66 67 68 70 71 71 72 73 73 73 73 73 74 74 75 74 73 74 74 74 74 73 72 72 72 71 71 72 72 71 71 70 69 70 70 68 67 67 67 67 66 66 67 67 65 65 65 65 65 66 65 66 64
5 4 4 5 6 8 7 9 6 15 21 20 22 17 22 32 30 23 31 35 33 33 36 35 35 39 39 40 43 46 47 47 48 49 49 52 54 56 59 59 60 63 65 65 65 66 67 69 71 71 72 72 73 73 73 73 74 74 74 74 73 73 73 73 73 73 72 72 72 72 71 71 72 71 70 70 68 69 69 68 67 67 67 67 66 66 67 66 66 65 65 66 65 65 65 65 66
8 6 5 4 4 8 3 7 5 4 11 17 15 15 32 30 20 40 29 32 33 33 36 35 34 36 38 37 39 44 45 47 47 48 48 51 54 55 58 60 61 63 65 64 65 66 67 68 69 71 72 72 73 73 73 73 74 74 74 74 73 73 73 73 73 73 72 72 72 72 72 71 71 71 70 70 69 68 69 68 67 67 67 66 67 66 66 65 67 64 64 66 65 65 65 65 65